Date String (YYYY-MM-DD hh:mm:ss) UTC,Instrument flags,Ambient pressure (hPa),Sample flow (lpm),Bypass flow (lpm),Sample temperature (°C),Ambient temperature (°C),ASC tube jacket temperature (°C),LED temperature (°C),Box temperature (°C),Sample RH (%),Span deviation,Mass concentration (μg/m³),Mass concentration (μg/m³),Mass concentration (μg/m³)
DateTimeUTC,F1_M11,P_M11,Q1_M11,Q2_M11,T1_M11,T2_M11,T3_M11,T4_M11,T5_M11,U1_M11,ZSPAN_M11,X0_M11,X2_M11,X1_M11
2021-10-01 16:00:00,,0831.5,5.00,0.00,29.0,28.3,00.0,38.0,30.9,22.1,0000.8,0010.47,0004.85,0004.31
2021-10-01 16:01:00,,0831.5,4.99,0.00,29.0,28.3,00.0,38.0,30.9,22.1,0000.6,0010.95,0004.83,0004.31
2021-10-01 16:02:00,,0831.5,5.00,0.00,29.1,28.3,00.0,38.0,30.9,22.3,0000.7,0011.27,0004.87,0004.31
2021-10-01 16:03:00,,0831.5,5.00,0.00,29.1,28.3,00.0,38.1,30.9,22.5,0001.0,0011.53,0004.88,0004.32
2021-10-01 16:04:00,,0831.5,5.01,0.00,29.1,28.3,00.0,38.1,30.9,21.8,0001.3,0010.96,0004.88,0004.31
2021-10-01 16:05:00,,0831.5,5.01,0.00,29.1,28.3,00.0,38.1,30.9,21.4,0001.4,0011.24,0004.89,0004.32
2021-10-01 16:06:00,,0831.5,5.01,0.00,29.1,28.3,00.0,38.1,31.0,21.6,0001.5,0011.69,0004.93,0004.31
2021-10-01 16:07:00,,0831.5,4.99,0.00,29.1,28.3,00.0,38.1,31.0,21.4,0001.5,0011.58,0004.93,0004.31
2021-10-01 16:08:00,,0831.4,5.01,0.00,29.1,28.4,00.0,38.2,31.0,21.5,0001.5,0011.34,0004.94,0004.31
2021-10-01 16:09:00,,0831.5,4.99,0.00,29.1,28.4,00.0,38.2,31.0,20.9,0001.5,0011.35,0004.94,0004.31
2021-10-01 16:10:00,,0831.4,4.99,0.00,29.2,28.4,00.0,38.2,31.0,20.2,0001.5,0011.33,0004.96,0004.31
2021-10-01 16:11:00,,0831.4,5.00,0.00,29.2,28.4,00.0,38.2,31.0,20.9,0001.5,0011.49,0004.98,0004.31
2021-10-01 16:12:00,,0831.4,5.01,0.00,29.2,28.4,00.0,38.2,31.0,20.7,0001.8,0012.03,0005.02,0004.32
2021-10-01 16:13:00,,0831.4,4.99,0.00,29.2,28.5,00.0,38.2,31.0,20.3,0002.1,0011.57,0005.00,0004.34
2021-10-01 16:14:00,,0831.4,5.00,0.00,29.2,28.5,00.0,38.2,31.1,20.9,0001.9,0011.09,0004.99,0004.35
2021-10-01 16:15:00,,0831.4,5.01,0.00,29.2,28.5,00.0,38.2,31.1,20.4,0002.1,0010.93,0004.96,0004.36
2021-10-01 16:16:00,,0831.4,5.01,0.00,29.3,28.5,00.0,38.3,31.1,20.7,0002.4,0011.36,0004.93,0004.37
2021-10-01 16:17:00,,0831.3,5.00,0.00,29.3,28.5,00.0,38.3,31.1,20.4,0002.5,0011.49,0004.93,0004.37
2021-10-01 16:18:00,,0831.3,4.99,0.00,29.3,28.6,00.0,38.3,31.1,20.3,0002.6,0011.50,0004.92,0004.39
2021-10-01 16:19:00,,0831.3,5.00,0.00,29.3,28.6,00.0,38.3,31.1,21.0,0002.6,0011.50,0004.92,0004.42
2021-10-01 16:20:00,,0831.2,5.02,0.00,29.3,28.6,00.0,38.3,31.2,21.4,0002.6,0010.97,0004.93,0004.44
2021-10-01 16:21:00,,0831.2,5.00,0.00,29.4,28.6,00.0,38.3,31.2,20.2,0002.3,0011.40,0004.94,0004.45
2021-10-01 16:22:00,,0831.2,5.01,0.00,29.4,28.7,00.0,38.3,31.2,20.3,0002.2,0011.89,0004.97,0004.47
2021-10-01 16:23:00,,0831.2,5.00,0.00,29.4,28.7,00.0,38.4,31.2,20.9,0002.0,0010.89,0004.96,0004.48
2021-10-01 16:24:00,,0831.2,4.99,0.00,29.4,28.7,00.0,38.4,31.2,21.0,0001.4,0010.85,0004.99,0004.49
2021-10-01 16:25:00,,0831.2,5.00,0.00,29.4,28.7,00.0,38.4,31.3,20.4,0001.1,0010.85,0004.98,0004.49
2021-10-01 16:26:00,,0831.2,5.00,0.00,29.5,28.8,00.0,38.4,31.3,20.1,0000.7,0011.04,0005.08,0004.53
2021-10-01 16:27:00,,0831.2,5.00,0.00,29.5,28.8,00.0,38.4,31.3,20.7,0000.4,0010.60,0005.15,0004.56
2021-10-01 16:28:00,,0831.2,5.00,0.00,29.5,28.8,00.0,38.5,31.3,20.5,0000.2,0010.08,0005.19,0004.62
2021-10-01 16:29:00,,0831.2,5.00,0.00,29.5,28.8,00.0,38.5,31.3,20.9,0000.3,0009.77,0005.22,0004.64
2021-10-01 16:30:00,,0831.3,5.01,0.00,29.5,28.8,00.0,38.5,31.3,20.9,0000.3,0009.79,0005.24,0004.65
2021-10-01 16:31:00,,0831.3,5.00,0.00,29.5,28.8,00.0,38.5,31.4,20.5,0000.4,0009.84,0005.28,0004.68
2021-10-01 16:32:00,,0831.3,5.00,0.00,29.6,28.8,00.0,38.5,31.4,20.8,0000.4,0009.70,0005.32,0004.70
2021-10-01 16:33:00,,0831.2,5.00,0.00,29.6,28.9,00.0,38.6,31.4,20.6,0000.5,0009.10,0005.33,0004.73
2021-10-01 16:34:00,,0831.2,5.00,0.00,29.6,28.9,00.0,38.6,31.4,20.7,0000.8,0009.27,0005.37,0004.75
2021-10-01 16:35:00,,0831.2,4.99,0.00,29.6,28.9,00.0,38.6,31.4,20.9,0001.3,0009.27,0005.38,0004.78
2021-10-01 16:36:00,,0831.2,5.00,0.00,29.6,29.0,00.0,38.6,31.4,20.5,0001.4,0009.24,0005.38,0004.79
2021-10-01 16:37:00,,0831.2,5.00,0.00,29.6,29.0,00.0,38.6,31.5,20.5,0001.4,0009.17,0005.35,0004.78
2021-10-01 16:38:00,,0831.2,5.00,0.00,29.7,29.0,00.0,38.6,31.5,20.8,0001.8,0009.10,0005.29,0004.75
2021-10-01 16:39:00,,0831.2,5.00,0.00,29.7,29.0,00.0,38.7,31.5,20.6,0002.0,0008.94,0005.24,0004.72
2021-10-01 16:40:00,,0831.2,5.00,0.00,29.7,29.0,00.0,38.7,31.5,20.5,0001.8,0009.22,0005.29,0004.72
2021-10-01 16:41:00,,0831.2,4.99,0.00,29.7,29.0,00.0,38.7,31.5,20.6,0001.7,0009.29,0005.31,0004.73
2021-10-01 16:42:00,,0831.2,5.02,0.00,29.7,29.0,00.0,38.7,31.5,20.7,0001.5,0009.33,0005.30,0004.73
2021-10-01 16:43:00,,0831.2,5.00,0.00,29.7,29.0,00.0,38.7,31.5,21.0,0001.5,0009.24,0005.28,0004.71
2021-10-01 16:44:00,,0831.2,5.00,0.00,29.7,29.1,00.0,38.8,31.6,21.2,0001.3,0009.15,0005.27,0004.68
2021-10-01 16:45:00,,0831.2,5.00,0.00,29.8,29.1,00.0,38.8,31.6,20.8,0000.9,0009.53,0005.27,0004.67
2021-10-01 16:46:00,,0831.2,5.01,0.00,29.8,29.1,00.0,38.8,31.6,20.4,0000.6,0009.72,0005.26,0004.65
2021-10-01 16:47:00,,0831.4,5.01,0.00,29.8,29.1,00.0,38.8,31.6,20.7,0000.7,0010.06,0005.28,0004.64
2021-10-01 16:48:00,,0831.4,5.00,0.00,29.8,29.2,00.0,38.8,31.7,20.6,0000.7,0010.44,0005.27,0004.63
2021-10-01 16:49:00,,0831.3,5.01,0.00,29.8,29.2,00.0,38.9,31.7,20.3,0000.3,0010.50,0005.28,0004.63
2021-10-01 16:50:00,,0831.3,4.99,0.00,29.9,29.2,00.0,38.9,31.7,20.4,0000.3,0010.94,0005.29,0004.64
2021-10-01 16:51:00,,0831.4,5.00,0.00,29.9,29.1,00.0,38.9,31.7,20.1,0000.2,0010.79,0005.23,0004.62
2021-10-01 16:52:00,,0831.4,5.00,0.00,29.9,29.1,00.0,38.9,31.7,19.7,-000.1,0010.77,0005.18,0004.61
2021-10-01 16:53:00,,0831.4,5.00,0.00,29.9,29.1,00.0,38.9,31.7,20.3,-000.1,0010.93,0005.17,0004.61
2021-10-01 16:54:00,,0831.3,5.00,0.00,29.9,29.1,00.0,38.9,31.7,20.1,-000.3,0010.96,0005.17,0004.61
2021-10-01 16:55:00,,0831.3,4.99,0.00,29.9,29.1,00.0,38.9,31.7,20.0,-000.4,0011.16,0005.14,0004.61
2021-10-01 16:56:00,,0831.3,5.00,0.00,29.9,29.1,00.0,38.9,31.7,20.1,-000.3,0010.72,0005.11,0004.61
2021-10-01 16:57:00,,0831.3,5.02,0.00,29.9,29.1,00.0,38.9,31.6,20.4,-000.1,0010.48,0005.09,0004.60
2021-10-01 16:58:00,,0831.3,5.00,0.00,29.9,29.1,00.0,38.9,31.7,20.5,-000.3,0010.10,0005.03,0004.59
2021-10-01 16:59:00,,0831.3,5.00,0.00,29.9,29.2,00.0,39.0,31.7,20.4,-000.2,0010.18,0005.05,0004.57
